User: anonymous   Login
Location: Landeleau
(48.2273°N, 3.7285°W)
Time: 08:16:58
(UTC+00:00)
Language:

Cosmos 1980 Rocket - Orbit

View from above orbital plane
View from above orbital plane
View from above satellite
View from above satellite

Ground track
Ground track

The orbit data is extracted from the following two-line orbital elements,

1 19650U 88102B   21168.05254043 -.00000144  00000-0 -48841-4 0  9991
2 19650  70.9985 183.2284 0012265 124.6067 235.6215 14.15807053682768
Epoch (UTC): 17 June 2021 01:15:39
Eccentricity: 0.0012265
inclination: 70.9985°
perigee height: 831 km
apogee height: 848 km
right ascension of ascending node: 183.2284°
argument of perigee: 124.6067°
revolutions per day: 14.15807053
mean anomaly at epoch: 235.6215°
orbit number at epoch: 68276

The dashed part of the orbit path shows where the satellite is in the earth's shadow,  

DLR